Location: Anumalkud?ru
(16.4847°N, 80.6636°E)
Time: 10:37:32
(UTC+00:00)

Cosmos 2322 Rocket - Pass Details

Date: 11 April 2026
Orbit: 832 x 849 km, 71.0° (Epoch: 12 May)

Event Time Altitude Azimuth Distance (km) Brightness Sun altitude
Rises 13:29:34 0° 212° (SSW) 3,374 5.6 -9.7°
Reaches altitude 10° 13:32:08 10° 218° (SW) 2,439 5.0 -10.3°
Maximum altitude 13:37:22 42° 288° (WNW) 1,176 3.6 -11.5°
Drops below altitude 10° 13:42:38 10° 359° (N) 2,435 4.8 -12.7°
Sets 13:45:12 0° 6° (N) 3,369 5.4 -13.3°
